Date,TemperatureHighF,TemperatureAvgF,TemperatureLowF,DewpointHighF,DewpointAvgF,DewpointLowF,HumidityHigh,HumidityAvg,HumidityLow,PressureMaxIn,PressureMinIn,WindSpeedMaxMPH,WindSpeedAvgMPH,GustSpeedMaxMPH,PrecipitationSumIn
2012-1-1,27,25,18,12,-3,-41,53,31,4,0.00,40.00,15,9,23,0.00
2012-1-2,36,31,27,10,4,-4,48,32,19,0.00,40.00,10,6,17,0.00
2012-1-3,30,26,23,6,-4,-15,39,27,13,0.00,40.00,21,13,29,0.00
2012-1-4,36,30,24,0,-7,-18,33,20,8,0.00,40.00,20,13,27,0.00
2012-1-5,37,32,27,12,-6,-16,54,20,10,0.00,40.00,15,7,20,0.00
2012-1-6,27,22,21,14,5,-7,62,47,25,0.00,40.00,24,14,33,0.00
2012-1-7,21,14,8,12,9,2,91,79,43,0.00,40.00,23,14,42,0.00
2012-1-8,21,11,7,0,-9,-23,69,45,13,0.00,40.00,39,22,53,0.00
2012-1-9,33,30,22,17,7,-27,66,40,9,0.00,40.00,22,9,35,0.00
2012-1-10,36,26,18,14,-5,-29,81,34,5,0.00,40.00,20,13,28,0.00
2012-1-11,18,9,4,12,-5,-26,92,56,20,0.00,40.00,32,20,46,0.00
2012-1-12,14,10,4,-11,-19,-29,39,26,18,0.00,40.00,22,10,28,0.00
2012-1-13,20,15,10,3,-12,-26,52,30,16,0.00,40.00,22,13,28,0.00
2012-1-14,31,23,18,5,0,-5,49,37,22,0.00,40.00,22,14,37,0.00
2012-1-15,22,19,16,11,-7,-22,78,34,12,0.00,40.00,34,25,50,0.00
2012-1-16,15,9,-5,13,6,-9,91,87,81,0.00,40.00,31,18,51,0.00
2012-1-17,7,0,-5,5,-4,-9,87,83,80,0.00,40.00,31,15,51,0.00
2012-1-18,20,13,7,16,8,4,88,82,70,0.00,40.00,26,20,33,0.00
2012-1-19,29,25,21,21,16,8,86,69,44,0.00,40.00,27,19,37,0.00
2012-1-20,27,20,17,11,9,6,72,60,45,0.00,40.00,22,13,40,0.00
2012-1-21,24,20,14,22,15,9,97,81,53,0.00,40.00,41,27,57,0.00
2012-1-22,13,6,4,11,3,0,91,87,84,0.00,40.00,23,15,36,0.00
2012-1-23,17,12,7,15,10,4,93,90,87,0.00,40.00,25,19,40,0.00
2012-1-24,14,10,7,12,8,4,91,88,86,0.00,40.00,17,8,35,0.00
2012-1-25,29,22,9,16,10,4,89,62,35,0.00,40.00,42,24,56,0.00
2012-1-26,23,19,16,19,14,6,96,82,57,0.00,40.00,35,18,45,0.00
2012-1-27,19,9,4,17,6,1,93,87,78,0.00,40.00,28,16,38,0.00
2012-1-28,17,13,6,-7,-21,-39,53,21,8,0.00,40.00,29,20,37,0.00
2012-1-29,31,22,17,7,4,-1,51,45,33,0.00,40.00,24,8,31,0.00
2012-1-30,24,20,18,7,0,-9,59,40,29,0.00,40.00,24,14,36,0.00
2012-1-31,19,16,14,9,0,-13,75,52,22,0.00,40.00,14,8,17,0.00
2012-2-1,20,16,13,10,-8,-36,82,38,6,0.00,40.00,23,13,35,0.00
2012-2-2,18,13,10,16,10,7,90,89,86,0.00,40.00,22,8,30,0.00
2012-2-3,12,10,8,9,7,3,90,88,75,0.00,40.00,30,15,36,0.00
2012-2-4,16,10,7,7,4,0,88,78,56,0.00,40.00,21,7,26,0.00
2012-2-5,11,9,7,8,6,5,88,87,82,0.00,40.00,19,12,26,0.00
2012-2-6,14,8,5,11,5,1,88,86,81,0.00,40.00,12,5,19,0.00
2012-2-7,17,10,5,3,-9,-33,73,44,9,0.00,40.00,20,6,26,0.00
2012-2-8,21,18,14,18,12,-24,94,80,14,0.00,40.00,23,16,36,0.00
2012-2-9,17,13,11,14,10,8,93,89,81,0.00,40.00,23,15,32,0.00
2012-2-10,20,15,11,18,11,-2,94,84,50,0.00,40.00,23,14,33,0.00
2012-2-11,22,20,16,17,12,6,90,72,61,0.00,40.00,23,15,37,0.00
2012-2-12,20,16,13,15,12,11,91,86,69,0.00,40.00,29,20,46,0.00
2012-2-13,15,12,7,13,9,4,91,89,86,0.00,40.00,24,10,32,0.00
2012-2-14,17,12,8,14,10,5,91,90,88,0.00,40.00,23,16,36,0.00
2012-2-15,19,9,3,15,6,-1,91,86,78,0.00,40.00,21,10,27,0.00
2012-2-16,27,13,4,26,10,0,95,89,84,0.00,40.00,11,6,18,0.00
2012-2-17,16,11,5,10,4,-7,86,74,40,0.00,40.00,22,9,31,0.00
2012-2-18,20,16,9,4,-8,-21,72,36,16,0.00,40.00,28,16,38,0.00
2012-2-19,16,9,-4,11,5,-8,90,84,62,0.00,40.00,31,20,43,0.00
2012-2-20,8,0,-6,2,-6,-14,82,75,38,0.00,40.00,25,14,30,0.00
2012-2-21,17,11,5,15,8,2,93,89,85,0.00,40.00,22,13,30,0.00
2012-2-22,23,20,17,21,17,14,94,90,75,0.00,40.00,24,16,34,0.00
2012-2-23,21,9,0,17,6,-3,93,86,78,0.00,40.00,39,24,51,0.00
2012-2-24,25,12,-1,3,-2,-16,84,55,28,0.00,40.00,34,16,42,0.00
2012-2-25,22,19,10,4,-1,-8,49,41,33,0.00,40.00,31,24,52,0.00
2012-2-26,15,6,-3,-4,-13,-42,79,49,6,0.00,40.00,23,15,34,0.00
2012-2-27,20,17,15,18,8,-38,94,72,6,0.00,40.00,38,30,63,0.00
2012-2-28,18,11,8,17,9,6,94,89,88,0.00,40.00,40,21,59,0.00
2012-2-29,14,10,5,12,7,2,90,88,85,0.00,40.00,34,20,48,0.00
2012-3-1,11,7,0,9,4,-3,89,87,84,0.00,40.00,24,16,38,0.00
2012-3-2,3,0,-5,-1,-4,-9,85,83,81,0.00,40.00,28,18,42,0.00
2012-3-3,16,8,-4,11,4,-8,92,83,71,0.00,40.00,34,18,45,0.00
2012-3-4,34,24,12,10,1,-7,90,40,21,0.00,40.00,22,11,33,0.00
2012-3-5,28,26,23,5,-1,-5,39,31,23,0.00,40.00,25,16,42,0.00
2012-3-6,27,25,21,10,1,-13,53,35,17,0.00,40.00,42,31,65,0.00
2012-3-7,20,13,9,10,6,-1,90,74,47,0.00,40.00,43,21,58,0.00
2012-3-8,25,20,13,13,-2,-14,78,41,18,0.00,40.00,35,14,50,0.00
2012-3-9,29,25,22,0,-8,-21,31,22,11,0.00,40.00,22,11,30,0.00
2012-3-10,29,25,21,10,3,-6,49,38,27,0.00,40.00,14,7,19,0.00
2012-3-11,23,23,22,0,-2,-6,37,32,26,0.00,40.00,14,11,20,0.00
2012-11-4,39,33,29,20,11,-20,63,41,9,0.00,40.00,12,7,17,0.00
2012-11-5,41,35,30,23,16,-3,74,49,18,0.00,40.00,13,7,18,0.00
2012-11-6,45,39,35,19,12,3,38,32,22,0.00,40.00,9,5,12,0.00
2012-11-7,40,36,33,16,10,-3,46,34,16,0.00,40.00,19,11,29,0.00
2012-11-8,38,33,28,21,13,2,74,44,22,0.00,40.00,30,20,44,0.00
2012-11-9,27,25,21,27,25,21,99,98,89,0.00,40.00,38,28,56,0.00
2012-11-10,21,8,1,20,5,-3,97,89,85,0.00,40.00,23,13,41,0.00
2012-11-11,2,0,-3,-1,-4,-6,86,85,84,0.00,40.00,19,11,23,0.00
2012-11-12,26,17,3,11,-1,-13,86,46,29,0.00,40.00,22,10,28,0.00
2012-11-13,25,20,16,11,1,-23,83,47,10,0.00,40.00,16,8,19,0.00
2012-11-14,28,25,22,-2,-10,-100,28,20,15,0.00,40.00,12,10,18,0.00
2012-11-15,31,26,23,12,1,-6,45,32,25,0.00,40.00,16,8,19,0.00
2012-11-16,28,26,24,25,12,-3,97,60,28,0.00,40.00,24,20,38,0.00
2012-11-17,26,25,23,25,22,17,98,88,71,0.00,40.00,26,18,38,0.00
2012-11-18,24,22,20,23,21,19,98,97,96,0.00,40.00,25,16,39,0.00
2012-11-19,28,23,17,21,14,-5,97,71,27,0.00,40.00,19,12,29,0.00
2012-11-20,35,29,25,15,4,-2,43,33,28,0.00,40.00,18,10,26,0.00
2012-11-21,33,29,25,13,3,-10,58,32,17,0.00,40.00,23,20,35,0.00
2012-11-22,32,27,24,15,6,-5,65,42,22,0.00,40.00,17,8,27,0.00
2012-11-23,36,31,27,15,3,-10,41,31,14,0.00,40.00,11,7,15,0.00
2012-11-24,35,30,28,5,0,-8,33,26,17,0.00,40.00,12,7,15,0.00
2012-11-25,29,26,23,5,3,0,44,35,29,0.00,40.00,18,10,21,0.00
2012-11-26,26,24,21,7,-12,-35,51,27,5,0.00,40.00,17,12,20,0.00
2012-11-27,30,26,22,6,-6,-21,46,26,11,0.00,40.00,14,10,20,0.00
2012-11-28,29,26,23,22,13,1,83,60,33,0.00,40.00,27,17,37,0.00
2012-11-29,30,25,21,23,18,12,97,77,59,0.00,40.00,26,11,40,0.00
2012-11-30,28,25,22,23,18,10,98,76,50,0.00,40.00,28,22,47,0.00
2012-12-1,32,27,22,22,11,-10,98,58,16,0.00,40.00,25,10,40,0.00
2012-12-2,31,26,22,25,14,-10,98,64,19,0.00,40.00,28,23,46,0.00
2012-12-3,25,20,11,24,14,-20,98,83,16,0.00,40.00,21,7,35,0.00
2012-12-4,31,25,17,26,10,-6,87,56,26,0.00,40.00,16,7,20,0.00
2012-12-5,31,28,25,25,16,8,97,60,41,0.00,40.00,27,14,39,0.00
2012-12-6,29,23,19,28,19,-100,98,93,77,0.00,40.00,9,6,14,0.00
2012-12-7,21,18,15,20,15,8,97,89,71,0.00,40.00,15,9,20,0.00
2012-12-8,17,15,11,14,8,4,91,74,58,0.00,40.00,13,10,20,0.00
2012-12-9,10,0,-7,8,-5,-12,90,82,73,0.00,40.00,33,22,46,0.00
2012-12-10,7,6,3,5,3,0,89,87,86,0.00,40.00,26,21,36,0.00
2012-12-11,14,9,3,11,6,0,91,89,86,0.00,40.00,23,10,28,0.00
2012-12-12,19,16,12,10,7,3,90,67,50,0.00,40.00,30,21,48,0.00
2012-12-13,19,17,16,11,6,4,71,61,54,0.00,40.00,29,25,42,0.00
2012-12-14,19,16,14,17,14,8,94,89,64,0.00,40.00,35,21,47,0.00
2012-12-15,14,10,8,12,8,5,92,90,88,0.00,40.00,21,12,31,0.00
2012-12-16,9,7,5,7,4,2,89,88,86,0.00,40.00,13,8,20,0.00
2012-12-17,15,13,7,14,11,5,92,91,89,0.00,40.00,23,18,37,0.00
2012-12-18,15,14,12,13,12,10,93,92,91,0.00,40.00,38,24,54,0.00
2012-12-19,15,1,-8,13,-3,-15,93,82,38,0.00,40.00,38,20,57,0.00
2012-12-20,20,15,8,1,-10,-27,41,32,16,0.00,40.00,25,12,35,0.00
2012-12-21,24,21,18,-4,-13,-23,36,21,11,0.00,40.00,31,26,40,0.00
2012-12-22,24,21,17,0,-19,-29,46,17,8,0.00,40.00,23,21,37,0.00
2012-12-23,18,15,12,11,5,-8,91,67,30,0.00,40.00,29,17,44,0.00
2012-12-24,13,10,2,11,8,-1,91,90,86,0.00,40.00,28,19,42,0.00
2012-12-25,14,8,4,11,4,-1,90,84,51,0.00,40.00,15,6,24,0.00
2012-12-26,15,10,5,13,4,-33,92,80,9,0.00,40.00,31,24,49,0.00
2012-12-27,8,8,6,5,4,3,88,86,85,0.00,40.00,4,3,7,0.00
2012-12-28,12,5,2,8,-3,-35,87,75,10,0.00,40.00,13,7,22,0.00
2012-12-29,19,15,12,-25,-34,-44,15,9,4,0.00,40.00,28,15,36,0.00
2012-12-30,9,9,9,6,6,6,89,89,89,0.00,40.00,21,21,32,0.00
2012-12-31,6,3,0,3,0,-4,86,86,85,0.00,40.00,3,2,6,0.00